{"data":{"norad_id":40261,"epoch":"2026-05-25T04:46:21.870336Z","epoch_age_seconds":60883,"freshness":"FRESH","line1":"1 40261U 14059A   26145.19886424  .00000256  00000+0  58075-4 0  9993","line2":"2 40261  97.9942 215.1756 0009747 216.6495 143.4041 14.63710886621552","mean_motion":14.63710886,"eccentricity":0.0009747,"inclination_deg":97.9942,"raan_deg":215.1756,"arg_perigee_deg":216.6495,"mean_anomaly_deg":143.4041,"bstar":5.8075e-5,"rev_number":62155,"period_min":98.380084057119,"perigee_km":674.33644435208,"apogee_km":688.09794942349,"semimajor_km":7059.3541968878,"source":"CELESTRAK","updated_at":"2026-05-25T13:37:55.475625Z"}}